DW1188 Weather Reports


Display with metric or nautical units.
time (UTC)temp
F
wind
direction
speed
MPH
gust
MPH
rain 1hr
in
rain 24hr
in
rain mn
in
humidity
%
barometer
mb
20260901161641 65 46 3.0 12.0 0.00 0.00 0.00 58 1008.9
20260901160511 65 23 2.0 12.0 0.00 0.00 0.00 59 1009.0
20260901153948 63 57 3.0 15.0 0.00 0.00 0.00 63 1009.3
20260901152758 62 50 3.0 14.0 0.00 0.00 0.00 64 1009.5
20260901151550 61 28 0.0 5.0 0.00 0.00 0.00 66 1009.6
20260901150414 60 36 0.0 9.0 0.00 0.00 0.00 67 1009.7
20260901145201 59 39 0.0 5.0 0.00 0.00 0.00 69 1009.8
20260901142629 58 62 0.0 0.0 0.00 0.00 0.00 72 1009.7
20260901141406 57 53 0.0 0.0 0.00 0.00 0.00 72 1009.8
20260901140209 56 42 0.0 0.0 0.00 0.00 0.00 73 1009.9
20260901135020 56 74 0.0 9.0 0.00 0.00 0.00 74 1009.8
20260901133824 55 61 0.0 0.0 0.00 0.00 0.00 74 1009.8
20260901132645 55 58 0.0 0.0 0.00 0.00 0.00 73 1009.7
20260901131455 56 64 0.0 0.0 0.00 0.00 0.00 73 1009.7
20260901130220 56 67 0.0 0.0 0.00 0.00 0.00 73 1009.8
20260901124957 56 64 0.0 0.0 0.00 0.00 0.00 72 1009.9
20260901123822 56 87 0.0 0.0 0.00 0.00 0.00 73 1009.9
20260901122635 56 55 0.0 0.0 0.00 0.00 0.00 72 1009.9
20260901121355 56 53 0.0 0.0 0.00 0.00 0.00 71 1009.9
20260901120117 56 92 0.0 0.0 0.00 0.00 0.00 70 1009.8
20260901114929 57 103 0.0 0.0 0.00 0.00 0.00 70 1009.9
20260901112338 57 69 0.0 0.0 0.00 0.00 0.00 67 1009.8
20260901111137 57 81 0.0 0.0 0.00 0.00 0.00 67 1009.8
20260901105944 57 77 0.0 0.0 0.00 0.00 0.00 67 1009.9
20260901104748 57 53 0.0 0.0 0.00 0.00 0.00 66 1009.9
20260901102151 58 82 0.0 0.0 0.00 0.00 0.00 65 1009.7
20260901100945 58 70 0.0 0.0 0.00 0.00 0.00 64 1009.8
20260901095804 59 67 0.0 0.0 0.00 0.00 0.00 62 1009.9
20260901094550 59 57 0.0 0.0 0.00 0.00 0.00 62 1009.8
20260901093332 59 74 0.0 0.0 0.00 0.00 0.00 63 1009.8
20260901092148 59 67 0.0 0.0 0.00 0.00 0.00 62 1009.9
20260901091010 60 57 0.0 0.0 0.00 0.00 0.00 62 1009.8
20260901085833 60 59 0.0 0.0 0.00 0.00 0.00 62 1009.9
20260901084633 60 68 0.0 0.0 0.00 0.00 0.00 63 1009.9
20260901083451 59 68 0.0 0.0 0.00 0.00 0.00 63 1009.9
20260901082223 59 68 0.0 0.0 0.00 0.00 0.00 62 1010.0
20260901081019 59 68 0.0 0.0 0.00 0.00 0.00 62 1010.1
20260901075801 59 68 0.0 0.0 0.00 0.00 0.00 62 1010.1
20260901074626 60 68 0.0 0.0 0.00 0.00 0.00 61 1010.1
20260901073445 61 68 0.0 0.0 0.00 0.00 0.00 59 1010.2
20260901070914 62 68 0.0 0.0 0.00 0.00 0.00 55 1010.2
20260901064348 64 68 0.0 0.0 0.00 0.00 0.00 50 1010.1
20260901063118 64 73 0.0 0.0 0.00 0.00 0.00 50 1010.1
20260901061915 64 69 0.0 1.0 0.00 0.00 0.00 50 1010.1
20260901060739 64 69 0.0 0.0 0.00 0.00 0.00 50 1010.2
20260901055511 65 69 0.0 0.0 0.00 0.00 0.00 48 1010.3
20260901054314 65 43 0.0 0.0 0.00 0.00 0.00 47 1010.3
20260901053057 65 38 0.0 0.0 0.00 0.00 0.00 46 1010.4
20260901051842 65 17 0.0 0.0 0.00 0.00 0.00 46 1010.4
20260901050643 66 17 0.0 0.0 0.00 0.00 0.00 44 1010.6
20260901045445 66 17 0.0 0.0 0.00 0.00 0.00 43 1010.6
20260901044205 67 17 0.0 0.0 0.00 0.00 0.00 42 1010.7
20260901043001 68 17 0.0 0.0 0.00 0.00 0.00 41 1010.7
20260901041741 68 17 0.0 0.0 0.00 0.00 0.00 41 1010.9
20260901035144 69 11 0.0 0.0 0.00 0.00 0.00 41 1010.9
20260901033940 70 350 0.0 0.0 0.00 0.00 0.00 38 1010.9
20260901032740 72 351 0.0 0.0 0.00 0.00 0.00 36 1010.8
20260901031610 73 351 0.0 0.0 0.00 0.00 0.00 34 1010.9
20260901030345 74 351 0.0 0.0 0.00 0.00 0.00 33 1010.7
20260901025117 75 351 0.0 0.0 0.00 0.00 0.00 32 1010.8
20260901023853 76 351 0.0 0.0 0.00 0.00 0.00 30 1010.7
20260901022618 77 351 0.0 0.0 0.00 0.00 0.00 29 1010.8
20260901021445 78 351 0.0 0.0 0.00 0.00 0.00 29 1010.9
20260901014944 79 351 0.0 0.0 0.00 0.00 0.00 26 1011.1
20260901013713 80 350 0.0 0.0 0.00 0.00 0.00 25 1011.3
20260901012530 80 342 0.0 0.0 0.00 0.00 0.00 25 1011.3
20260901011308 80 320 0.0 0.0 0.00 0.00 0.00 25 1011.4
20260901010055 81 33 0.0 0.0 0.00 0.00 0.00 25 1011.6
20260901004831 81 41 0.0 0.0 0.00 0.00 0.00 25 1011.7
20260901003642 80 42 0.0 0.0 0.00 0.00 0.00 25 1011.8
20260901001101 80 331 0.0 0.0 0.00 0.00 0.00 25 1012.1
20260831235845 80 15 0.0 0.0 0.00 0.00 0.00 25 1012.3
20260831234619 80 15 0.0 0.0 0.00 0.00 0.00 26 1012.5
20260831232140 80 103 0.0 0.0 0.00 0.00 0.00 26 1012.7
20260831225623 80 336 0.0 0.0 0.00 0.00 0.00 26 1013.0
20260831224447 79 299 0.0 0.0 0.00 0.00 0.00 27 1013.2
20260831223226 79 317 0.0 0.0 0.00 0.00 0.00 26 1013.2
20260831221959 80 17 0.0 0.0 0.00 0.00 0.00 26 1013.5
20260831220802 78 137 0.0 0.0 0.00 0.00 0.00 26 1013.7
20260831215545 78 296 0.0 0.0 0.00 0.00 0.00 26 1013.8
20260831214352 77 297 0.0 1.0 0.00 0.00 0.00 27 1013.9
20260831213139 78 38 0.0 0.0 0.00 0.00 0.00 27 1014.2
20260831211955 77 80 0.0 0.0 0.00 0.00 0.00 27 1014.2
20260831210734 76 131 0.0 0.0 0.00 0.00 0.00 30 1014.4
20260831202854 75 50 0.0 0.0 0.00 0.00 0.00 28 1015.0
20260831201619 74 29 0.0 0.0 0.00 0.00 0.00 27 1015.2
20260831200350 74 51 0.0 0.0 0.00 0.00 0.00 28 1015.4
20260831195139 74 304 0.0 0.0 0.00 0.00 0.00 27 1015.6
20260831193920 74 182 0.0 0.0 0.00 0.00 0.00 26 1015.8
20260831192720 73 78 0.0 0.0 0.00 0.00 0.00 30 1016.1
20260831191441 72 194 0.0 0.0 0.00 0.00 0.00 33 1016.3
20260831190206 71 190 0.0 3.0 0.00 0.00 0.00 34 1016.4
20260831185008 71 308 0.0 0.0 0.00 0.00 0.00 32 1016.6
20260831183757 70 32 0.0 0.0 0.00 0.00 0.00 36 1016.8
20260831182532 69 242 0.0 0.0 0.00 0.00 0.00 35 1017.0
20260831181316 69 107 0.0 0.0 0.00 0.00 0.00 39 1017.0
20260831180044 68 42 0.0 0.0 0.00 0.00 0.00 43 1017.3
20260831174912 67 43 0.0 0.0 0.00 0.00 0.00 46 1017.4
20260831173706 67 51 0.0 0.0 0.00 0.00 0.00 45 1017.5
20260831172526 66 59 0.0 0.0 0.00 0.00 0.00 46 1017.7
20260831171314 65 90 0.0 0.0 0.00 0.00 0.00 47 1017.8
20260831170133 63 46 0.0 0.0 0.00 0.00 0.00 48 1017.9
20260831163611 61 53 0.0 0.0 0.00 0.00 0.00 52 1018.0
20260831162426 60 61 0.0 0.0 0.00 0.00 0.00 56 1018.1